Overview Statistics Trail Chart Weather Telemetry Raw packets
 

This is the latest recevied weather packets stored in our database for station/object KF7SOJ. If no packets are shown the sender has not sent any weather packets the latest 10 day(s).

<< 80 81 82 83 84 85 86 >>
Time Temp. Humidity Pressure Rain* Wind** Luminosity Snow
1788032341 26.67° C 34% 929.1 hPa 0 mm - 873 W/m² -
1788032036 26.11° C 35% 928.9 hPa 0 mm - 761 W/m² -
1788031732 26.11° C 35% 929.1 hPa 0 mm - 802 W/m² -
1788031431 26.11° C 34% 929.2 hPa 0 mm - 845 W/m² -
1788031127 26.11° C 36% 929.2 hPa 0 mm - 837 W/m² -
1788030825 26.11° C 36% 929.3 hPa 0 mm - 870 W/m² -
1788030525 26.11° C 35% 929.5 hPa 0 mm - 846 W/m² -
1788030221 26.11° C 36% 929.4 hPa 0 mm - 849 W/m² -
1788029915 25.56° C 35% 929.3 hPa 0 mm - 841 W/m² -
1788029611 25.56° C 37% 929.4 hPa 0 mm - 865 W/m² -
1788029306 25.56° C 37% 929.5 hPa 0 mm - 762 W/m² -
1788029005 25° C 38% 929.7 hPa 0 mm - 750 W/m² -
1788028704 25° C 38% 929.6 hPa 0 mm - 942 W/m² -
1788028398 25° C 40% 929.6 hPa 0 mm - 830 W/m² -
1788028095 24.44° C 44% 929.6 hPa 0 mm - 885 W/m² -
1788027789 23.33° C 49% 929.8 hPa 0 mm - 1009 W/m² -
1788027489 22.78° C 55% 929.8 hPa 0 mm - 546 W/m² -
1788027183 22.22° C 57% 929.8 hPa 0 mm - 410 W/m² -
1788026883 22.22° C 58% 930 hPa 0 mm - 435 W/m² -
1788026579 21.67° C 59% 930 hPa 0 mm - 286 W/m² -
1788026278 21.11° C 62% 930.2 hPa 0 mm - 270 W/m² -
1788025974 21.11° C 61% 930 hPa 0 mm - 275 W/m² -
1788025673 21.11° C 62% 930.1 hPa 0 mm - 197 W/m² -
1788025372 21.11° C 62% 930.2 hPa 0 mm - 243 W/m² -
1788025068 21.11° C 59% 930.1 hPa 0 mm - 293 W/m² -

* Rain latest hour (hover to see other rain measurements)
** Current wind speed in m/s (hover to see current wind gust speed)